When you browse on this site, cookies collect data to enhance your experience and personalize the content and advertising you see.
Visit our Privacy Policy to learn more. By continuing to use the site, you agree to this use of cookies and data.

Previsão horária em Plovdiv

Hoje, 16 Julho, Quinta-feira

Tempo Temperatura Precipitação Vento Pressão Humidade
00:00 +20°C° 0 mm 1 m/s 737 mmHg 74%
01:00 +20°C° 0 mm 1 m/s 737 mmHg 76%
02:00 +19°C° 0 mm 1 m/s 737 mmHg 77%
03:00 +19°C° 0 mm 1 m/s 736 mmHg 78%
04:00 +17°C° 0 mm 0 m/s 736 mmHg 79%
05:00 +16°C° 0 mm 0 m/s 736 mmHg 81%
06:00 +18°C° 0.2 mm 0 m/s 736 mmHg 77%
07:00 +21°C° 0.2 mm 1 m/s 737 mmHg 74%
08:00 +23°C° 0.2 mm 1 m/s 737 mmHg 70%
09:00 +24°C° 0.4 mm 1 m/s 737 mmHg 67%
10:00 +25°C° 0.4 mm 1 m/s 737 mmHg 63%
11:00 +26°C° 0.4 mm 1 m/s 736 mmHg 59%
12:00 +27°C° 0.7 mm 1 m/s 736 mmHg 57%
13:00 +28°C° 0.7 mm 1 m/s 736 mmHg 55%
14:00 +29°C° 0.7 mm 1 m/s 736 mmHg 52%
15:00 +29°C° 0.6 mm 1 m/s 735 mmHg 54%
16:00 +28°C° 0.6 mm 1 m/s 735 mmHg 55%
17:00 +28°C° 0.6 mm 1 m/s 734 mmHg 56%
18:00 +26°C° 0.2 mm 1 m/s 735 mmHg 61%
19:00 +24°C° 0.2 mm 1 m/s 735 mmHg 66%
20:00 +23°C° 0.2 mm 1 m/s 735 mmHg 71%
21:00 +22°C° 0.1 mm 1 m/s 735 mmHg 73%
22:00 +21°C° 0.1 mm 1 m/s 735 mmHg 76%
23:00 +21°C° 0.1 mm 1 m/s 736 mmHg 78%

Amanhã, 17 Julho, Sexta-feira

Tempo Temperatura Precipitação Vento Pressão Humidade
00:00 +20°C° 0 mm 1 m/s 736 mmHg 79%
01:00 +20°C° 0 mm 1 m/s 736 mmHg 81%
02:00 +19°C° 0 mm 1 m/s 735 mmHg 82%
03:00 +19°C° 0 mm 1 m/s 735 mmHg 83%
04:00 +18°C° 0 mm 1 m/s 735 mmHg 84%
05:00 +18°C° 0 mm 1 m/s 735 mmHg 85%
06:00 +20°C° 0 mm 1 m/s 735 mmHg 79%
07:00 +22°C° 0 mm 1 m/s 736 mmHg 73%
08:00 +24°C° 0 mm 1 m/s 736 mmHg 67%
09:00 +26°C° 0.1 mm 1 m/s 736 mmHg 61%
10:00 +28°C° 0.1 mm 1 m/s 736 mmHg 55%
11:00 +29°C° 0.1 mm 1 m/s 736 mmHg 49%
12:00 +30°C° 0.3 mm 1 m/s 735 mmHg 48%
13:00 +30°C° 0.3 mm 2 m/s 735 mmHg 48%
14:00 +30°C° 0.3 mm 2 m/s 735 mmHg 47%
15:00 +30°C° 0.5 mm 2 m/s 734 mmHg 49%
16:00 +30°C° 0.5 mm 2 m/s 734 mmHg 51%
17:00 +29°C° 0.5 mm 2 m/s 734 mmHg 53%
18:00 +27°C° 0.1 mm 2 m/s 734 mmHg 58%
19:00 +26°C° 0.1 mm 2 m/s 734 mmHg 64%
20:00 +24°C° 0.1 mm 2 m/s 734 mmHg 69%
21:00 +23°C° 0 mm 2 m/s 734 mmHg 70%
22:00 +21°C° 0 mm 2 m/s 734 mmHg 72%
23:00 +21°C° 0 mm 2 m/s 735 mmHg 73%

Depois de amanhã, 18 Julho, Sábado

Tempo Temperatura Precipitação Vento Pressão Humidade
00:00 +20°C° 0 mm 2 m/s 735 mmHg 74%
01:00 +19°C° 0 mm 2 m/s 735 mmHg 75%
02:00 +20°C° 0 mm 1 m/s 735 mmHg 77%
03:00 +19°C° 0 mm 1 m/s 735 mmHg 78%
04:00 +19°C° 0 mm 1 m/s 735 mmHg 79%
05:00 +18°C° 0 mm 1 m/s 735 mmHg 80%
06:00 +20°C° 0 mm 1 m/s 735 mmHg 74%
07:00 +22°C° 0 mm 1 m/s 735 mmHg 68%
08:00 +24°C° 0 mm 1 m/s 735 mmHg 62%
09:00 +26°C° 0 mm 2 m/s 735 mmHg 57%
10:00 +27°C° 0 mm 2 m/s 735 mmHg 51%
11:00 +28°C° 0 mm 3 m/s 735 mmHg 45%
12:00 +29°C° 0.1 mm 3 m/s 735 mmHg 43%
13:00 +30°C° 0.1 mm 3 m/s 734 mmHg 41%
14:00 +30°C° 0.1 mm 3 m/s 734 mmHg 39%
15:00 +30°C° 0.2 mm 3 m/s 734 mmHg 42%
16:00 +29°C° 0.2 mm 2 m/s 733 mmHg 45%
17:00 +29°C° 0.2 mm 2 m/s 733 mmHg 48%
18:00 +27°C° 0.2 mm 2 m/s 733 mmHg 54%
19:00 +26°C° 0.2 mm 2 m/s 734 mmHg 60%
20:00 +24°C° 0.2 mm 2 m/s 734 mmHg 65%
21:00 +23°C° 1.1 mm 2 m/s 734 mmHg 74%
22:00 +22°C° 1.1 mm 1 m/s 735 mmHg 83%
23:00 +20°C° 1.1 mm 1 m/s 735 mmHg 91%

19 Julho, Domingo

Tempo Temperatura Precipitação Vento Pressão Humidade
00:00 +20°C° 0.1 mm 1 m/s 735 mmHg 92%
01:00 +19°C° 0.1 mm 1 m/s 735 mmHg 93%
02:00 +19°C° 0.1 mm 1 m/s 735 mmHg 94%
03:00 +18°C° 0 mm 1 m/s 735 mmHg 94%
04:00 +18°C° 0 mm 1 m/s 735 mmHg 93%
05:00 +18°C° 0 mm 1 m/s 735 mmHg 93%
06:00 +20°C° 0 mm 1 m/s 736 mmHg 88%
07:00 +21°C° 0 mm 1 m/s 736 mmHg 83%
08:00 +21°C° 0 mm 2 m/s 736 mmHg 78%
09:00 +24°C° 0 mm 2 m/s 736 mmHg 70%
10:00 +26°C° 0 mm 1 m/s 736 mmHg 62%
11:00 +28°C° 0 mm 1 m/s 736 mmHg 54%
12:00 +29°C° 0.1 mm 1 m/s 736 mmHg 52%
13:00 +29°C° 0.1 mm 1 m/s 736 mmHg 50%
14:00 +30°C° 0.1 mm 1 m/s 736 mmHg 48%
15:00 +30°C° 0.1 mm 1 m/s 735 mmHg 49%
16:00 +30°C° 0.1 mm 1 m/s 735 mmHg 50%
17:00 +29°C° 0.1 mm 2 m/s 735 mmHg 51%
18:00 +28°C° 0.1 mm 1 m/s 735 mmHg 57%
19:00 +26°C° 0.1 mm 1 m/s 735 mmHg 64%
20:00 +24°C° 0.1 mm 1 m/s 735 mmHg 71%
21:00 +23°C° 0 mm 1 m/s 735 mmHg 73%
22:00 +23°C° 0 mm 1 m/s 736 mmHg 75%
23:00 +22°C° 0 mm 1 m/s 736 mmHg 77%

20 Julho, Segunda-feira

Tempo Temperatura Precipitação Vento Pressão Humidade
00:00 +21°C° 0.1 mm 1 m/s 736 mmHg 80%
01:00 +21°C° 0.1 mm 1 m/s 736 mmHg 82%
02:00 +20°C° 0.1 mm 1 m/s 735 mmHg 85%
03:00 +20°C° 0.1 mm 1 m/s 735 mmHg 86%
04:00 +19°C° 0.1 mm 1 m/s 735 mmHg 86%
05:00 +19°C° 0.1 mm 1 m/s 735 mmHg 87%
06:00 +21°C° 0 mm 1 m/s 735 mmHg 81%
07:00 +23°C° 0 mm 1 m/s 736 mmHg 75%
08:00 +25°C° 0 mm 1 m/s 736 mmHg 69%
09:00 +26°C° 0.1 mm 1 m/s 736 mmHg 62%
10:00 +28°C° 0.1 mm 1 m/s 736 mmHg 54%
11:00 +30°C° 0.1 mm 2 m/s 736 mmHg 47%
12:00 +30°C° 0.1 mm 2 m/s 736 mmHg 46%
13:00 +30°C° 0.1 mm 2 m/s 736 mmHg 45%
14:00 +30°C° 0.1 mm 2 m/s 735 mmHg 44%
15:00 +30°C° 0.1 mm 3 m/s 735 mmHg 45%
16:00 +30°C° 0.1 mm 3 m/s 735 mmHg 46%
17:00 +30°C° 0.1 mm 3 m/s 735 mmHg 47%
18:00 +28°C° 0 mm 3 m/s 735 mmHg 54%
19:00 +26°C° 0 mm 2 m/s 735 mmHg 61%
20:00 +24°C° 0 mm 2 m/s 735 mmHg 68%
21:00 +23°C° 0 mm 2 m/s 736 mmHg 70%
22:00 +21°C° 0 mm 2 m/s 736 mmHg 72%
23:00 +20°C° 0 mm 2 m/s 736 mmHg 74%

21 Julho, Terça-feira

Tempo Temperatura Precipitação Vento Pressão Humidade
00:00 +19°C° 0 mm 2 m/s 736 mmHg 75%
01:00 +19°C° 0 mm 2 m/s 736 mmHg 76%
02:00 +19°C° 0 mm 2 m/s 736 mmHg 77%
03:00 +19°C° 0 mm 2 m/s 736 mmHg 76%
04:00 +18°C° 0 mm 2 m/s 737 mmHg 75%
05:00 +18°C° 0 mm 2 m/s 737 mmHg 75%
06:00 +20°C° 0 mm 2 m/s 737 mmHg 68%
07:00 +24°C° 0 mm 2 m/s 737 mmHg 61%
08:00 +26°C° 0 mm 2 m/s 737 mmHg 53%
09:00 +28°C° 0 mm 2 m/s 737 mmHg 49%
10:00 +29°C° 0 mm 3 m/s 737 mmHg 45%
11:00 +31°C° 0 mm 3 m/s 737 mmHg 41%
12:00 +32°C° 0 mm 4 m/s 737 mmHg 39%
13:00 +33°C° 0 mm 4 m/s 737 mmHg 37%
14:00 +34°C° 0 mm 4 m/s 736 mmHg 35%
15:00 +34°C° 0 mm 4 m/s 736 mmHg 37%
16:00 +33°C° 0 mm 4 m/s 736 mmHg 39%
17:00 +33°C° 0 mm 5 m/s 736 mmHg 41%
18:00 +29°C° 0 mm 4 m/s 736 mmHg 50%
19:00 +27°C° 0 mm 3 m/s 736 mmHg 58%
20:00 +25°C° 0 mm 2 m/s 736 mmHg 67%
21:00 +24°C° 0 mm 2 m/s 737 mmHg 70%
22:00 +24°C° 0 mm 2 m/s 737 mmHg 72%
23:00 +23°C° 0 mm 2 m/s 737 mmHg 75%
Mostrar mais